TimeCDT,TemperatureF,Dew PointF,Humidity,Sea Level PressureIn,VisibilityMPH,Wind Direction,Wind SpeedMPH,Gust SpeedMPH,PrecipitationIn,Events,Conditions,WindDirDegrees,DateUTC
12:19 AM,66.2,60.8,83,29.94,10.0,NNW,11.5,18.4,N/A,,Mostly Cloudy,330,2012-10-27 05:19:00
12:53 AM,64.9,60.1,84,29.95,10.0,NNW,11.5,17.3,N/A,,Overcast,330,2012-10-27 05:53:00
1:53 AM,62.1,57.0,84,29.94,10.0,NNW,11.5,-,N/A,,Overcast,340,2012-10-27 06:53:00
2:53 AM,59.0,54.0,83,29.94,10.0,NNW,18.4,26.5,N/A,,Overcast,340,2012-10-27 07:53:00
3:53 AM,55.9,52.0,87,29.94,10.0,North,17.3,28.8,N/A,,Overcast,360,2012-10-27 08:53:00
4:53 AM,55.9,51.1,84,29.95,10.0,North,15.0,23.0,N/A,,Overcast,350,2012-10-27 09:53:00
5:53 AM,55.0,50.0,83,29.96,10.0,North,15.0,20.7,N/A,,Overcast,350,2012-10-27 10:53:00
6:53 AM,54.0,50.0,86,29.96,10.0,North,13.8,23.0,N/A,,Overcast,350,2012-10-27 11:53:00
7:53 AM,53.1,48.9,86,29.97,10.0,North,15.0,23.0,N/A,,Overcast,360,2012-10-27 12:53:00
8:08 AM,53.6,48.2,82,29.97,10.0,North,15.0,21.9,N/A,,Overcast,360,2012-10-27 13:08:00
8:28 AM,53.6,48.2,82,29.97,10.0,North,13.8,-,N/A,,Overcast,360,2012-10-27 13:28:00
8:53 AM,53.1,48.9,86,29.98,10.0,NNW,10.4,-,N/A,,Overcast,340,2012-10-27 13:53:00
9:00 AM,53.6,48.2,82,29.98,10.0,NNW,11.5,-,N/A,,Overcast,340,2012-10-27 14:00:00
9:29 AM,53.6,48.2,82,29.97,10.0,North,15.0,-,N/A,,Overcast,350,2012-10-27 14:29:00
9:53 AM,55.9,48.0,75,29.99,10.0,NNW,17.3,21.9,N/A,,Overcast,340,2012-10-27 14:53:00
10:53 AM,57.0,48.0,72,29.99,10.0,NNW,11.5,21.9,N/A,,Overcast,340,2012-10-27 15:53:00
11:53 AM,57.9,48.0,70,29.97,10.0,NNW,12.7,21.9,N/A,,Overcast,340,2012-10-27 16:53:00
12:02 PM,57.2,46.4,67,29.97,10.0,North,16.1,-,N/A,,Overcast,360,2012-10-27 17:02:00
12:53 PM,57.9,48.0,70,29.95,10.0,NNW,13.8,20.7,N/A,,Overcast,340,2012-10-27 17:53:00
1:53 PM,57.0,46.9,69,29.94,10.0,North,13.8,21.9,N/A,,Overcast,350,2012-10-27 18:53:00
2:53 PM,54.0,46.0,75,29.93,10.0,North,15.0,24.2,N/A,,Overcast,350,2012-10-27 19:53:00
3:00 PM,53.6,46.4,77,29.92,10.0,North,18.4,25.3,N/A,,Overcast,360,2012-10-27 20:00:00
3:53 PM,53.1,46.0,77,29.93,10.0,North,13.8,21.9,N/A,,Overcast,350,2012-10-27 20:53:00
4:40 PM,51.8,44.6,76,29.93,10.0,North,16.1,23.0,N/A,,Overcast,350,2012-10-27 21:40:00
4:53 PM,52.0,45.0,77,29.94,10.0,NNW,15.0,25.3,N/A,,Overcast,340,2012-10-27 21:53:00
5:53 PM,52.0,45.0,77,29.96,10.0,North,10.4,-,N/A,,Overcast,350,2012-10-27 22:53:00
6:53 PM,52.0,45.0,77,29.96,10.0,NNW,17.3,24.2,N/A,,Overcast,340,2012-10-27 23:53:00
7:53 PM,53.1,44.1,71,29.96,10.0,North,19.6,26.5,N/A,,Overcast,360,2012-10-28 00:53:00
8:38 PM,51.8,44.6,76,29.97,10.0,North,9.2,-,N/A,,Scattered Clouds,360,2012-10-28 01:38:00
8:53 PM,51.1,44.1,77,29.98,10.0,North,9.2,-,N/A,,Clear,350,2012-10-28 01:53:00
9:53 PM,50.0,45.0,83,29.99,10.0,NNW,8.1,-,N/A,,Clear,340,2012-10-28 02:53:00
11:12 PM,48.2,44.6,87,29.98,10.0,North,10.4,16.1,N/A,,Mostly Cloudy,350,2012-10-28 04:12:00
11:53 PM,50.0,44.1,80,29.99,10.0,North,9.2,-,N/A,,Overcast,350,2012-10-28 04:53:00